• în România
  • Lista ţărilor
  • Pe 7 zile
  • Temperatura apei
  • Hartă satelitară
  • Meteo pe hartă
  • Widget-uri
  • user-avatar
    Intrare

    Meteo pe oră la Eisenstadt

    Astăzi, 22 Iulie, Sâmbătă

    Timp Temperatura Precipitaţii Vânt Presiune Umiditate
    00:00 +21°C° 0 mm 1 m/s 721 mmHg 70%
    01:00 +20°C° 0 mm 1 m/s 721 mmHg 73%
    02:00 +20°C° 0,1 mm 1 m/s 721 mmHg 74%
    03:00 +20°C° 0,1 mm 1 m/s 721 mmHg 75%
    04:00 +20°C° 0,1 mm 1 m/s 721 mmHg 76%
    05:00 +21°C° 0 mm 1 m/s 721 mmHg 73%
    06:00 +21°C° 0 mm 2 m/s 721 mmHg 70%
    07:00 +24°C° 0 mm 2 m/s 721 mmHg 68%
    08:00 +26°C° 0,1 mm 2 m/s 722 mmHg 61%
    09:00 +28°C° 0,1 mm 2 m/s 722 mmHg 54%
    10:00 +30°C° 0,1 mm 3 m/s 722 mmHg 48%
    11:00 +31°C° 0,4 mm 3 m/s 722 mmHg 45%
    12:00 +32°C° 0,4 mm 2 m/s 722 mmHg 42%
    13:00 +34°C° 0,4 mm 2 m/s 722 mmHg 39%
    14:00 +32°C° 0,3 mm 2 m/s 721 mmHg 41%
    15:00 +32°C° 0,3 mm 2 m/s 721 mmHg 43%
    16:00 +31°C° 0,3 mm 2 m/s 721 mmHg 45%
    17:00 +30°C° 0,1 mm 2 m/s 721 mmHg 50%
    18:00 +28°C° 0,1 mm 2 m/s 721 mmHg 54%
    19:00 +27°C° 0,1 mm 2 m/s 721 mmHg 59%
    20:00 +25°C° 0,6 mm 2 m/s 721 mmHg 64%
    21:00 +24°C° 0,6 mm 2 m/s 721 mmHg 70%
    22:00 +23°C° 0,6 mm 1 m/s 721 mmHg 75%
    23:00 +22°C° 0,5 mm 1 m/s 721 mmHg 78%

    Mâine, 23 Iulie, Duminică

    Timp Temperatura Precipitaţii Vânt Presiune Umiditate
    00:00 +22°C° 0,5 mm 1 m/s 722 mmHg 80%
    01:00 +21°C° 0,5 mm 1 m/s 722 mmHg 82%
    02:00 +21°C° 0,1 mm 1 m/s 721 mmHg 83%
    03:00 +20°C° 0,1 mm 1 m/s 721 mmHg 85%
    04:00 +20°C° 0,1 mm 1 m/s 721 mmHg 86%
    05:00 +21°C° 0,1 mm 1 m/s 721 mmHg 82%
    06:00 +23°C° 0,1 mm 2 m/s 722 mmHg 78%
    07:00 +24°C° 0,1 mm 2 m/s 722 mmHg 74%
    08:00 +25°C° 0,5 mm 2 m/s 722 mmHg 69%
    09:00 +27°C° 0,5 mm 3 m/s 722 mmHg 64%
    10:00 +28°C° 0,5 mm 3 m/s 722 mmHg 59%
    11:00 +29°C° 0,5 mm 3 m/s 722 mmHg 55%
    12:00 +29°C° 0,5 mm 4 m/s 722 mmHg 52%
    13:00 +30°C° 0,5 mm 4 m/s 722 mmHg 49%
    14:00 +30°C° 0,5 mm 3 m/s 722 mmHg 50%
    15:00 +29°C° 0,5 mm 3 m/s 722 mmHg 52%
    16:00 +29°C° 0,5 mm 3 m/s 721 mmHg 53%
    17:00 +28°C° 0,6 mm 3 m/s 721 mmHg 58%
    18:00 +26°C° 0,6 mm 3 m/s 721 mmHg 62%
    19:00 +25°C° 0,6 mm 3 m/s 721 mmHg 67%
    20:00 +22°C° 0,4 mm 3 m/s 721 mmHg 72%
    21:00 +21°C° 0,4 mm 3 m/s 722 mmHg 77%
    22:00 +20°C° 0,4 mm 2 m/s 722 mmHg 81%
    23:00 +19°C° 0,4 mm 2 m/s 722 mmHg 83%

    Poimâine, 24 Iulie, Luni

    Timp Temperatura Precipitaţii Vânt Presiune Umiditate
    00:00 +19°C° 0,4 mm 2 m/s 721 mmHg 85%
    01:00 +18°C° 0,4 mm 2 m/s 721 mmHg 87%
    02:00 +18°C° 0,1 mm 2 m/s 721 mmHg 87%
    03:00 +18°C° 0,1 mm 2 m/s 721 mmHg 87%
    04:00 +18°C° 0,1 mm 2 m/s 720 mmHg 86%
    05:00 +18°C° 0,1 mm 2 m/s 720 mmHg 83%
    06:00 +19°C° 0,1 mm 2 m/s 720 mmHg 80%
    07:00 +20°C° 0,1 mm 2 m/s 720 mmHg 77%
    08:00 +21°C° 0,4 mm 2 m/s 719 mmHg 73%
    09:00 +23°C° 0,4 mm 2 m/s 719 mmHg 68%
    10:00 +24°C° 0,4 mm 2 m/s 719 mmHg 64%
    11:00 +24°C° 0,8 mm 2 m/s 718 mmHg 63%
    12:00 +25°C° 0,8 mm 2 m/s 718 mmHg 63%
    13:00 +25°C° 0,8 mm 2 m/s 717 mmHg 62%
    14:00 +24°C° 0,7 mm 2 m/s 717 mmHg 67%
    15:00 +24°C° 0,7 mm 2 m/s 716 mmHg 71%
    16:00 +23°C° 0,7 mm 2 m/s 715 mmHg 75%
    17:00 +21°C° 1 mm 2 m/s 715 mmHg 79%
    18:00 +20°C° 1 mm 2 m/s 715 mmHg 83%
    19:00 +19°C° 1 mm 2 m/s 715 mmHg 87%
    20:00 +18°C° 0,3 mm 3 m/s 715 mmHg 87%
    21:00 +17°C° 0,3 mm 4 m/s 714 mmHg 86%
    22:00 +15°C° 0,3 mm 5 m/s 714 mmHg 86%
    23:00 +15°C° 0 mm 5 m/s 714 mmHg 85%

    25 Iulie, Marţi

    Timp Temperatura Precipitaţii Vânt Presiune Umiditate
    00:00 +15°C° 0 mm 5 m/s 714 mmHg 84%
    01:00 +15°C° 0 mm 5 m/s 715 mmHg 82%
    02:00 +15°C° 0,1 mm 5 m/s 715 mmHg 82%
    03:00 +15°C° 0,1 mm 5 m/s 715 mmHg 82%
    04:00 +15°C° 0,1 mm 4 m/s 715 mmHg 81%
    05:00 +15°C° 0 mm 5 m/s 715 mmHg 79%
    06:00 +15°C° 0 mm 5 m/s 715 mmHg 76%
    07:00 +15°C° 0 mm 6 m/s 715 mmHg 73%
    08:00 +16°C° 0 mm 6 m/s 715 mmHg 69%
    09:00 +16°C° 0 mm 6 m/s 715 mmHg 66%
    10:00 +17°C° 0 mm 6 m/s 715 mmHg 62%
    11:00 +17°C° 0,1 mm 5 m/s 716 mmHg 61%
    12:00 +19°C° 0,1 mm 5 m/s 716 mmHg 59%
    13:00 +20°C° 0,1 mm 5 m/s 716 mmHg 57%
    14:00 +20°C° 0 mm 5 m/s 716 mmHg 54%
    15:00 +21°C° 0 mm 5 m/s 716 mmHg 50%
    16:00 +22°C° 0 mm 5 m/s 715 mmHg 47%
    17:00 +20°C° 0 mm 5 m/s 715 mmHg 52%
    18:00 +19°C° 0 mm 4 m/s 715 mmHg 57%
    19:00 +18°C° 0 mm 3 m/s 715 mmHg 62%
    20:00 +17°C° 0 mm 3 m/s 715 mmHg 66%
    21:00 +14°C° 0 mm 3 m/s 715 mmHg 71%
    22:00 +14°C° 0 mm 2 m/s 716 mmHg 76%
    23:00 +14°C° 0 mm 2 m/s 716 mmHg 77%

    26 Iulie, Miercuri

    Timp Temperatura Precipitaţii Vânt Presiune Umiditate
    00:00 +13°C° 0 mm 2 m/s 716 mmHg 79%
    01:00 +13°C° 0 mm 2 m/s 716 mmHg 80%
    02:00 +13°C° 0 mm 2 m/s 716 mmHg 81%
    03:00 +12°C° 0 mm 2 m/s 716 mmHg 81%
    04:00 +12°C° 0 mm 2 m/s 716 mmHg 82%
    05:00 +14°C° 0 mm 2 m/s 716 mmHg 75%
    06:00 +16°C° 0 mm 2 m/s 716 mmHg 69%
    07:00 +17°C° 0 mm 2 m/s 717 mmHg 62%
    08:00 +19°C° 0 mm 2 m/s 717 mmHg 56%
    09:00 +21°C° 0 mm 2 m/s 717 mmHg 49%
    10:00 +24°C° 0 mm 3 m/s 717 mmHg 43%
    11:00 +24°C° 0,2 mm 3 m/s 717 mmHg 44%
    12:00 +24°C° 0,2 mm 3 m/s 717 mmHg 45%
    13:00 +24°C° 0,2 mm 3 m/s 717 mmHg 46%
    14:00 +24°C° 0,4 mm 2 m/s 717 mmHg 48%
    15:00 +24°C° 0,4 mm 2 m/s 717 mmHg 50%
    16:00 +24°C° 0,4 mm 2 m/s 717 mmHg 52%
    17:00 +23°C° 0,5 mm 2 m/s 717 mmHg 58%
    18:00 +20°C° 0,5 mm 2 m/s 717 mmHg 64%
    19:00 +19°C° 0,5 mm 3 m/s 717 mmHg 69%
    20:00 +18°C° 1 mm 3 m/s 717 mmHg 74%
    21:00 +16°C° 1 mm 3 m/s 718 mmHg 78%
    22:00 +14°C° 1 mm 3 m/s 718 mmHg 83%
    23:00 +14°C° 0,6 mm 3 m/s 718 mmHg 84%

    27 Iulie, Joi

    Timp Temperatura Precipitaţii Vânt Presiune Umiditate
    00:00 +15°C° 0,6 mm 2 m/s 718 mmHg 86%
    01:00 +15°C° 0,6 mm 2 m/s 718 mmHg 87%
    02:00 +14°C° 0,3 mm 2 m/s 718 mmHg 88%
    03:00 +14°C° 0,3 mm 1 m/s 718 mmHg 88%
    04:00 +14°C° 0,3 mm 1 m/s 718 mmHg 89%
    05:00 +15°C° 0,3 mm 1 m/s 719 mmHg 86%
    06:00 +16°C° 0,3 mm 1 m/s 719 mmHg 84%
    07:00 +16°C° 0,3 mm 1 m/s 719 mmHg 81%
    08:00 +19°C° 0,5 mm 1 m/s 719 mmHg 76%
    09:00 +20°C° 0,5 mm 1 m/s 720 mmHg 71%
    10:00 +20°C° 0,5 mm 2 m/s 720 mmHg 66%
    11:00 +20°C° 0,7 mm 2 m/s 720 mmHg 66%
    12:00 +21°C° 0,7 mm 2 m/s 719 mmHg 66%
    13:00 +21°C° 0,7 mm 2 m/s 719 mmHg 66%
    14:00 +21°C° 0,2 mm 2 m/s 719 mmHg 65%
    15:00 +21°C° 0,2 mm 2 m/s 719 mmHg 63%
    16:00 +21°C° 0,2 mm 2 m/s 719 mmHg 62%
    17:00 +20°C° 0 mm 2 m/s 719 mmHg 65%
    18:00 +21°C° 0 mm 1 m/s 719 mmHg 68%
    19:00 +20°C° 0 mm 1 m/s 719 mmHg 71%
    20:00 +19°C° 0 mm 1 m/s 720 mmHg 73%
    21:00 +18°C° 0 mm 1 m/s 720 mmHg 75%
    22:00 +16°C° 0 mm 1 m/s 720 mmHg 77%
    23:00 +16°C° 0 mm 1 m/s 721 mmHg 78%
    Arată mai mult